, WY

(GMT )
South Pass

Weather History for KFWZ - September, 2013

Change the Weather History Date:

Sunday, September 29, 2013

  Actual Average Record
Temperature  
Mean Temperature 40 °F -  
Max Temperature 53 °F - - ()
Min Temperature 28 °F - - ()
Degree Days  
Heating Degree Days 24    
Moisture  
Dew Point 29 °F    
Average Humidity 64    
Maximum Humidity 100    
Minimum Humidity 38    
Precipitation  
Precipitation 0.00 in - - ()
Sea Level Pressure  
Sea Level Pressure 29.99 in    
Wind  
Wind Speed 16 mph (SW)    
Max Wind Speed 34 mph    
Max Gust Speed 52 mph    
Visibility 10 miles    
Events      
Averages and records for this station are not official NWS values.
T = Trace of Precipitation, MM = Missing Value Source: NWS Daily Summary

Daily Weather History Graph

Daily Weather History Graph

Search for Another Location

Airport or City:

Trip Planner

Search our weather history database for the weather conditions in past years. The results will help you decide how hot, cold, wet, or windy it might be!

Date:

Astronomy

Sep. 29, 2013 Rise Set
Actual Time 7:10 AM MDT 6:59 PM MDT
Civil Twilight 6:42 AM MDT 7:27 PM MDT
Nautical Twilight 6:09 AM MDT 8:00 PM MDT
Astronomical Twilight 5:36 AM MDT 8:33 PM MDT
Moon 1:49 AM MDT (9/29) 4:02 PM MDT (9/29)
Length of Visible Light 12h 45m
Length of Day
11h 49m
Waning Crescent, 26% of the Moon is Illuminated
Sep 29
Waning Crescent
Oct 4
New
Oct 11
First Quarter
Oct 18
Full
Oct 26
Last Quarter

Hourly Weather History & Observations

Time (MDT) Temp. Windchill Dew Point Humidity Pressure Visibility Wind Dir Wind Speed Gust Speed Precip Events Conditions
12:15 AM 35.6 °F 29.9 °F 32.0 °F 87% 30.12 in 10.0 mi SW 6.9 mph - N/A   Clear
12:35 AM 35.6 °F 28.0 °F 32.0 °F 87% 30.11 in 10.0 mi WSW 10.4 mph - N/A   Clear
12:55 AM 37.4 °F 29.3 °F 32.0 °F 81% 30.11 in 10.0 mi WSW 12.7 mph - N/A   Clear
1:15 AM 37.4 °F 28.9 °F 32.0 °F 81% 30.11 in 10.0 mi WSW 13.8 mph 20.7 mph N/A   Clear
1:35 AM 33.8 °F 24.3 °F 32.0 °F 93% 30.11 in 10.0 mi WSW 13.8 mph - N/A   Clear
1:55 AM 33.8 °F 25.8 °F 32.0 °F 93% 30.11 in 10.0 mi SW 10.4 mph - N/A   Clear
2:15 AM 33.8 °F 27.0 °F 32.0 °F 93% 30.12 in 10.0 mi WSW 8.1 mph - N/A   Clear
2:35 AM 32.0 °F 25.6 °F 32.0 °F 100% 30.10 in 10.0 mi WSW 6.9 mph - N/A   Clear
2:55 AM 32.0 °F 25.6 °F 32.0 °F 100% 30.10 in 10.0 mi WSW 6.9 mph - N/A   Clear
3:15 AM 33.8 °F 28.6 °F 32.0 °F 93% 30.10 in 10.0 mi WSW 5.8 mph - N/A   Clear
3:35 AM 33.8 °F 28.6 °F 30.2 °F 87% 30.09 in 10.0 mi WSW 5.8 mph - N/A   Clear
3:55 AM 33.8 °F 26.4 °F 30.2 °F 87% 30.09 in 10.0 mi WSW 9.2 mph - N/A   Clear
4:15 AM 33.8 °F 26.4 °F 28.4 °F 81% 30.09 in 10.0 mi WSW 9.2 mph - N/A   Clear
4:35 AM 33.8 °F 29.6 °F 28.4 °F 81% 30.08 in 10.0 mi SE 4.6 mph - N/A   Clear
4:55 AM 32.0 °F 24.8 °F 28.4 °F 87% 30.07 in 10.0 mi South 8.1 mph - N/A   Clear
5:15 AM 32.0 °F 27.5 °F 28.4 °F 87% 30.06 in 10.0 mi SSE 4.6 mph - N/A   Clear
5:35 AM 32.0 °F 25.6 °F 28.4 °F 87% 30.06 in 10.0 mi South 6.9 mph - N/A   Clear
5:55 AM 30.2 °F 24.3 °F 28.4 °F 93% 30.05 in 10.0 mi SSE 5.8 mph - N/A   Clear
6:15 AM 30.2 °F 22.6 °F 28.4 °F 93% 30.05 in 10.0 mi SSE 8.1 mph - N/A   Clear
6:35 AM 30.2 °F 22.6 °F 28.4 °F 93% 30.04 in 10.0 mi SSE 8.1 mph - N/A   Clear
6:55 AM 30.2 °F 23.4 °F 28.4 °F 93% 30.03 in 10.0 mi SE 6.9 mph - N/A   Clear
7:15 AM 28.4 °F 23.3 °F 28.4 °F 100% 30.03 in 10.0 mi SSE 4.6 mph - N/A   Clear
7:35 AM 35.6 °F 26.6 °F 26.6 °F 70% 30.02 in 10.0 mi WSW 13.8 mph 25.3 mph N/A   Clear
7:55 AM 39.2 °F 29.3 °F 24.8 °F 56% 30.01 in 10.0 mi WSW 20.7 mph 26.5 mph N/A   Clear
8:15 AM 39.2 °F 28.3 °F 23.0 °F 52% 29.98 in 10.0 mi WSW 25.3 mph 33.4 mph N/A   Clear
8:35 AM 41.0 °F 30.7 °F 23.0 °F 49% 29.96 in 10.0 mi WSW 25.3 mph 36.8 mph N/A   Clear
8:55 AM 41.0 °F 29.8 °F 23.0 °F 49% 29.97 in 10.0 mi WSW 29.9 mph 40.3 mph N/A   Clear
9:15 AM 41.0 °F 29.7 °F 23.0 °F 49% 29.96 in 10.0 mi WSW 31.1 mph 43.7 mph N/A   Clear
9:35 AM 41.0 °F 29.3 °F 23.0 °F 49% 29.96 in 10.0 mi WSW 33.4 mph 42.6 mph N/A   Clear
9:55 AM 41.0 °F 30.9 °F 24.8 °F 53% 29.97 in 10.0 mi WSW 24.2 mph 38.0 mph N/A   Clear
10:15 AM 42.8 °F 32.7 °F 24.8 °F 49% 29.97 in 10.0 mi WSW 27.6 mph 40.3 mph N/A   Clear
10:35 AM 42.8 °F 32.5 °F 24.8 °F 49% 29.95 in 10.0 mi WSW 28.8 mph 40.3 mph N/A   Clear
10:55 AM 42.8 °F 32.1 °F 24.8 °F 49% 29.94 in 10.0 mi WSW 31.1 mph 43.7 mph N/A   Clear
11:15 AM 42.8 °F 32.9 °F 26.6 °F 53% 29.93 in 10.0 mi WSW 26.5 mph 46.0 mph N/A   Clear
11:35 AM 42.8 °F 31.8 °F 26.6 °F 53% 29.92 in 10.0 mi WSW 33.4 mph 48.3 mph N/A   Clear
11:55 AM 42.8 °F 32.3 °F 26.6 °F 53% 29.92 in 10.0 mi WSW 29.9 mph 44.9 mph N/A   Clear
12:15 PM 44.6 °F 35.3 °F 28.4 °F 53% 29.94 in 10.0 mi WSW 26.5 mph 40.3 mph N/A   Clear
12:35 PM 44.6 °F 34.2 °F 30.2 °F 57% 29.94 in 10.0 mi WSW 33.4 mph 41.4 mph N/A   Clear
12:55 PM 46.4 °F 37.0 °F 28.4 °F 50% 29.91 in 10.0 mi WSW 31.1 mph 43.7 mph N/A   Clear
1:15 PM 46.4 °F 37.4 °F 28.4 °F 50% 29.91 in 10.0 mi WSW 28.8 mph 42.6 mph N/A   Clear
1:35 PM 48.2 °F - 30.2 °F 50% 29.91 in 10.0 mi WSW 24.2 mph 42.6 mph N/A   Clear
1:55 PM 48.2 °F - 30.2 °F 50% 29.92 in 10.0 mi WSW 31.1 mph 39.1 mph N/A   Clear
2:15 PM 50.0 °F - 30.2 °F 47% 29.91 in 10.0 mi SW 21.9 mph 36.8 mph N/A   Scattered Clouds
2:35 PM 51.8 °F - 30.2 °F 44% 29.92 in 10.0 mi WSW 29.9 mph 36.8 mph N/A   Scattered Clouds
2:55 PM 51.8 °F - 28.4 °F 41% 29.92 in 10.0 mi WSW 26.5 mph 42.6 mph N/A   Scattered Clouds
3:15 PM 53.6 °F - 28.4 °F 38% 29.89 in 10.0 mi WSW 33.4 mph 43.7 mph N/A   Clear
3:35 PM 51.8 °F - 28.4 °F 41% 29.84 in 10.0 mi WSW 32.2 mph 51.8 mph N/A   Clear
3:55 PM 51.8 °F - 28.4 °F 41% 29.86 in 10.0 mi WSW 34.5 mph 47.2 mph N/A   Clear
4:15 PM 51.8 °F - 28.4 °F 41% 29.85 in 10.0 mi WSW 31.1 mph 48.3 mph N/A   Clear
4:35 PM 51.8 °F - 28.4 °F 41% 29.86 in 10.0 mi WSW 31.1 mph 43.7 mph N/A   Clear
4:55 PM 51.8 °F - 28.4 °F 41% 29.91 in 10.0 mi WSW 24.2 mph 39.1 mph N/A   Clear
5:15 PM 51.8 °F - 28.4 °F 41% 29.91 in 10.0 mi WSW 25.3 mph 38.0 mph N/A   Clear
5:35 PM 50.0 °F - 28.4 °F 43% 29.91 in 10.0 mi WSW 31.1 mph 43.7 mph N/A   Clear
5:55 PM 50.0 °F - 28.4 °F 43% 29.91 in 10.0 mi WSW 33.4 mph 48.3 mph N/A   Clear
6:15 PM 46.4 °F 39.0 °F 30.2 °F 53% 29.94 in 10.0 mi WSW 19.6 mph 35.7 mph N/A   Clear
6:35 PM 46.4 °F 39.5 °F 30.2 °F 53% 29.96 in 10.0 mi SW 17.3 mph 42.6 mph N/A   Scattered Clouds
6:55 PM 44.6 °F 37.8 °F 32.0 °F 61% 29.96 in 10.0 mi SW 15.0 mph 21.9 mph N/A   Scattered Clouds
7:15 PM 44.6 °F 36.9 °F 32.0 °F 61% 29.96 in 10.0 mi WSW 18.4 mph 24.2 mph N/A   Clear
7:35 PM 42.8 °F 35.1 °F 32.0 °F 66% 29.97 in 10.0 mi WSW 16.1 mph 25.3 mph N/A   Clear
7:55 PM 42.8 °F 36.2 °F 32.0 °F 66% 29.98 in 10.0 mi WSW 12.7 mph 19.6 mph N/A   Clear
8:15 PM 42.8 °F 35.8 °F 32.0 °F 66% 29.98 in 10.0 mi WSW 13.8 mph 23.0 mph N/A   Scattered Clouds
8:35 PM 42.8 °F 35.4 °F 32.0 °F 66% 30.00 in 10.0 mi WSW 15.0 mph 21.9 mph N/A   Mostly Cloudy
8:55 PM 42.8 °F 34.5 °F 30.2 °F 61% 29.99 in 10.0 mi WSW 18.4 mph 24.2 mph N/A   Mostly Cloudy
9:15 PM 42.8 °F 37.0 °F 30.2 °F 61% 29.98 in 10.0 mi SW 10.4 mph 23.0 mph N/A   Scattered Clouds
9:35 PM 42.8 °F 38.0 °F 30.2 °F 61% 29.99 in 10.0 mi SW 8.1 mph 16.1 mph N/A   Scattered Clouds
9:55 PM 42.8 °F 36.6 °F 32.0 °F 66% 30.00 in 10.0 mi WSW 11.5 mph 17.3 mph N/A   Mostly Cloudy
10:15 PM 42.8 °F 36.2 °F 32.0 °F 66% 29.99 in 10.0 mi WSW 12.7 mph 20.7 mph N/A   Overcast
10:35 PM 42.8 °F 34.8 °F 30.2 °F 61% 29.98 in 10.0 mi WSW 17.3 mph 23.0 mph N/A   Overcast
10:55 PM 42.8 °F 34.5 °F 30.2 °F 61% 29.98 in 10.0 mi WSW 18.4 mph 25.3 mph N/A   Mostly Cloudy
11:15 PM 42.8 °F 37.0 °F 30.2 °F 61% 29.98 in 10.0 mi SW 10.4 mph 19.6 mph N/A   Clear
11:35 PM 42.8 °F 35.1 °F 30.2 °F 61% 29.98 in 10.0 mi WSW 16.1 mph 20.7 mph N/A   Scattered Clouds
11:55 PM 42.8 °F 34.8 °F 30.2 °F 61% 29.97 in 10.0 mi SW 17.3 mph 23.0 mph N/A   Scattered Clouds